Weather History for KITH - January, 2015

Change the Weather History Date:

Tuesday, January 6, 2015

  Actual Average Record
Temperature  
Mean Temperature 12 °F -  
Max Temperature 16 °F 30 °F 59 °F (1998)
Min Temperature 9 °F 14 °F -11 °F (1976)
Degree Days  
Heating Degree Days 52    
Moisture  
Dew Point 6 °F    
Average Humidity 74    
Maximum Humidity 81    
Minimum Humidity 67    
Precipitation  
Precipitation 0.00 in - - ()
Sea Level Pressure  
Sea Level Pressure 30.19 in    
Wind  
Wind Speed 5 mph (SW)    
Max Wind Speed 10 mph    
Max Gust Speed -    
Visibility 7 miles    
Events Snow    
Averages and records for this station are not official NWS values.
T = Trace of Precipitation, MM = Missing Value Source: NWS Daily Summary

Daily Weather History Graph

Daily Weather History Graph

Search for Another Location

Airport or City:

Trip Planner

Search our weather history database for the weather conditions in past years. The results will help you decide how hot, cold, wet, or windy it might be!

Date:

Astronomy

Jan. 06, 2015 Rise Set
Actual Time 7:35 AM EST 4:48 PM EST
Civil Twilight 7:03 AM EST 5:19 PM EST
Nautical Twilight 6:28 AM EST 5:54 PM EST
Astronomical Twilight 5:54 AM EST 6:28 PM EST
Moon 6:38 PM EST (1/6) 8:08 AM EST (1/6)
Length of Visible Light 10h 15m
Length of Day
9h 12m
Full, 98% of the Moon is Illuminated
Jan 6
Full
Jan 13
Last Quarter
Jan 20
New
Jan 26
First Quarter
Feb 3
Full

Hourly Weather History & Observations

Time (EST) Temp. Windchill Dew Point Humidity Pressure Visibility Wind Dir Wind Speed Gust Speed Precip Events Conditions
12:56 AM 10.0 °F -3.7 °F 1.0 °F 67% 30.40 in 10.0 mi WNW 10.4 mph - N/A   Overcast
1:56 AM 9.1 °F 2.6 °F 2.1 °F 73% 30.38 in 10.0 mi NNW 3.5 mph - N/A   Overcast
2:24 AM 10.4 °F 4.0 °F 3.2 °F 73% 30.32 in 10.0 mi West 3.5 mph - N/A   Overcast
2:56 AM 10.0 °F - 2.1 °F 70% 30.38 in 10.0 mi Calm Calm - N/A   Overcast
3:56 AM 10.0 °F - 3.0 °F 73% 30.37 in 10.0 mi Calm Calm - N/A   Overcast
4:56 AM 11.1 °F 1.7 °F 3.0 °F 70% 30.36 in 10.0 mi SW 5.8 mph - N/A   Mostly Cloudy
5:56 AM 11.1 °F 3.1 °F 4.1 °F 73% 30.32 in 10.0 mi South 4.6 mph - N/A   Overcast
6:23 AM 10.4 °F 2.2 °F 5.0 °F 79% 30.24 in 10.0 mi SE 4.6 mph - N/A   Overcast
6:27 AM 10.4 °F - 5.0 °F 79% 30.24 in 10.0 mi Calm Calm - N/A   Overcast
6:56 AM 11.1 °F 3.1 °F 5.0 °F 76% 30.30 in 10.0 mi SSE 4.6 mph - N/A   Overcast
7:30 AM 12.2 °F 0.7 °F 6.8 °F 79% 30.24 in 2.0 mi SSW 8.1 mph - 0.00 in Snow Light Snow
7:56 AM 12.0 °F 5.9 °F 7.2 °F 81% 30.28 in 1.0 mi SSE 3.5 mph - 0.00 in Snow Light Snow
7:59 AM 12.2 °F 4.3 °F 6.8 °F 79% 30.21 in 2.0 mi South 4.6 mph - 0.00 in Snow Light Snow
8:08 AM 12.2 °F 6.1 °F 6.8 °F 79% 30.20 in 1.0 mi SE 3.5 mph - 0.00 in Snow Light Snow
8:56 AM 12.0 °F 0.5 °F 7.2 °F 81% 30.28 in 2.0 mi SSW 8.1 mph - 0.00 in Snow Light Snow
9:56 AM 13.1 °F 2.8 °F 8.1 °F 80% 30.24 in 2.0 mi SW 6.9 mph - 0.00 in Snow Light Snow
10:56 AM 14.0 °F 2.0 °F 8.1 °F 77% 30.22 in 1.5 mi SSW 9.2 mph - 0.00 in Snow Light Snow
11:56 AM 15.1 °F 7.7 °F 9.1 °F 77% 30.17 in 2.0 mi SW 4.6 mph - 0.00 in Snow Light Snow
12:56 PM 16.2 °F 9.0 °F 9.1 °F 74% 30.13 in 2.0 mi West 4.6 mph - 0.00 in Snow Light Snow
1:32 PM 15.8 °F 6.1 °F 10.4 °F 79% 30.05 in 1.5 mi SSW 6.9 mph - 0.00 in Snow Light Snow
1:56 PM 16.2 °F 6.5 °F 8.1 °F 70% 30.11 in 6.0 mi WSW 6.9 mph - 0.00 in Snow Light Snow
2:56 PM 16.2 °F 9.0 °F 8.1 °F 70% 30.10 in 7.0 mi WSW 4.6 mph - 0.00 in Snow Light Snow Showers
3:56 PM 16.2 °F 5.5 °F 7.2 °F 68% 30.10 in 10.0 mi West 8.1 mph - 0.00 in   Mostly Cloudy
4:56 PM 15.1 °F 7.7 °F 7.2 °F 71% 30.09 in 10.0 mi WSW 4.6 mph - 0.00 in Snow Light Snow Showers
5:56 PM 13.1 °F 5.4 °F 6.1 °F 74% 30.08 in 10.0 mi SW 4.6 mph - 0.00 in   Mostly Cloudy
6:56 PM 11.1 °F 3.1 °F 5.0 °F 76% 30.06 in 10.0 mi South 4.6 mph - N/A   Scattered Clouds
7:56 PM 12.0 °F 1.5 °F 6.1 °F 77% 30.05 in 10.0 mi SW 6.9 mph - N/A   Mostly Cloudy
8:56 PM 14.0 °F 3.9 °F 5.0 °F 67% 30.04 in 10.0 mi SW 6.9 mph - N/A   Mostly Cloudy
9:56 PM 12.0 °F 2.7 °F 4.1 °F 71% 30.01 in 10.0 mi SW 5.8 mph - N/A   Scattered Clouds
10:56 PM 13.1 °F 2.8 °F 4.1 °F 67% 29.97 in 10.0 mi WSW 6.9 mph - N/A   Overcast
11:56 PM 13.1 °F 2.8 °F 4.1 °F 67% 29.93 in 10.0 mi WSW 6.9 mph - N/A   Overcast